Date,TemperatureHighF,TemperatureAvgF,TemperatureLowF,DewpointHighF,DewpointAvgF,DewpointLowF,HumidityHigh,HumidityAvg,HumidityLow,PressureMaxIn,PressureMinIn,WindSpeedMaxMPH,WindSpeedAvgMPH,GustSpeedMaxMPH,PrecipitationSumIn
2013-3-1,32.1,29.7,27.3,29.8,26.0,24.1,92,86,75,29.72,29.56,17,3,17,0.00
2013-3-2,27.7,25.7,20.0,25.0,22.6,17.0,90,88,81,29.73,29.69,0,0,0,0.05
2013-3-3,26.6,23.1,19.5,23.2,19.9,16.6,89,87,84,29.71,29.66,0,0,0,0.01
2013-3-4,26.0,22.5,20.5,21.9,19.5,18.0,91,88,81,29.87,29.67,0,0,0,0.02
2013-3-5,35.2,26.5,21.9,27.4,22.3,18.9,90,84,72,30.08,29.87,0,0,0,0.01
2013-3-6,36.0,32.4,22.9,29.6,25.6,20.3,92,76,61,30.16,30.05,0,0,0,0.00
2013-3-7,33.9,29.6,26.2,24.7,22.4,19.8,89,75,65,30.15,30.09,0,0,0,0.01
2013-3-8,37.5,28.6,20.8,26.1,23.2,17.5,92,81,63,30.29,30.09,0,0,0,0.01
2013-3-9,45.7,29.4,11.8,27.8,20.6,8.6,89,72,44,30.34,30.26,9,1,9,0.00
2013-3-10,52.7,40.9,22.5,26.4,21.1,14.7,86,49,22,30.32,30.13,16,2,16,0.00
2013-3-11,49.7,44.6,36.1,31.3,26.7,21.9,76,50,35,30.18,29.93,16,2,16,0.00
2013-3-12,50.6,46.3,34.5,46.0,41.3,31.2,91,83,54,29.95,29.63,23,3,23,0.95
2013-3-13,37.4,33.1,28.1,32.4,30.0,22.8,93,89,74,29.77,29.70,15,0,15,0.03
2013-3-14,29.8,21.2,13.4,23.9,15.5,8.1,87,79,61,29.87,29.70,21,3,21,0.03
2013-3-15,29.7,20.6,8.0,25.3,13.0,3.3,90,73,48,29.88,29.59,18,3,18,0.11
2013-3-16,25.4,20.4,10.6,19.8,13.4,7.0,87,75,55,29.89,29.72,15,2,15,0.00
2013-3-17,22.9,16.5,3.7,13.4,6.1,-1.2,88,65,45,30.34,29.88,21,3,21,0.00
2013-3-18,32.7,18.3,-1.5,19.4,2.6,-5.4,85,55,27,30.44,30.10,17,2,17,0.00
2013-3-19,28.6,26.2,23.7,25.6,23.1,19.3,91,88,80,30.10,29.66,45,12,45,0.16
2013-3-20,29.7,25.4,20.8,24.2,20.3,15.7,90,81,69,29.73,29.63,18,2,21,0.02
2013-3-21,32.3,24.8,14.0,19.6,15.5,10.6,88,69,47,29.72,29.61,14,1,14,0.00
2013-3-22,32.4,22.0,9.2,24.9,16.6,5.8,89,80,55,29.75,29.63,13,1,13,0.05
2013-3-23,32.4,27.7,22.3,22.8,20.4,17.9,89,75,57,29.80,29.66,22,4,25,0.00
2013-3-24,34.9,30.3,22.6,24.5,22.1,18.0,85,71,63,29.85,29.77,20,4,20,0.00
2013-3-25,39.9,30.9,18.9,27.6,22.7,15.5,90,72,48,29.79,29.54,15,2,15,0.00
2013-3-26,39.0,32.2,24.5,26.9,23.6,18.0,86,71,44,29.80,29.58,16,3,16,0.00
2013-3-27,42.9,33.1,22.3,30.0,25.0,18.8,92,73,51,29.92,29.77,21,2,21,0.00
2013-3-28,44.9,35.5,31.1,34.6,30.4,27.2,92,82,59,30.04,29.90,15,2,15,0.00
2013-3-29,42.2,35.0,29.9,35.1,31.4,27.3,91,87,68,30.06,30.00,7,0,11,0.06
2013-3-30,46.4,35.4,24.9,34.6,24.1,14.3,92,68,29,30.09,30.00,16,1,16,0.06
2013-3-31,50.7,38.7,24.4,35.5,24.4,15.1,92,60,29,30.09,29.69,17,2,18,0.03